East Middlebury, VT

3:55 AM EDT on August 31, 2016 (GMT -0400)
Middlebury State AP, Middlebu

Weather History for K6B0 - May, 2014

Change the Weather History Date:

Thursday, May 29, 2014

  Actual Average (KMPV) Record (KMPV)
Temperature  
Mean Temperature 55 °F 58 °F  
Max Temperature 70 °F 70 °F 87 °F (1978)
Min Temperature 41 °F 46 °F 32 °F (1956)
Degree Days  
Heating Degree Days 10 8  
Month to date heating degree days 341  
Since 1 July heating degree days 8045  
Cooling Degree Days 0 1  
Month to date cooling degree days 5  
Year to date cooling degree days 6  
Growing Degree Days 5 (Base 50)    
Moisture  
Dew Point 43 °F    
Average Humidity 67    
Maximum Humidity 100    
Minimum Humidity 31    
Precipitation  
Precipitation 0.00 in 0.12 in 2.02 in (1984)
Month to date precipitation 3.14  
Year to date precipitation 12.68  
Sea Level Pressure  
Sea Level Pressure 30.17 in    
Wind  
Wind Speed 1 mph (SSE)    
Max Wind Speed 7 mph    
Max Gust Speed -    
Visibility 10 miles    
Events      
T = Trace of Precipitation, MM = Missing Value Source: NWS Daily Summary

Daily Weather History Graph

Daily Weather History Graph

Search for Another Location

Airport or City:

Trip Planner

Search our weather history database for the weather conditions in past years. The results will help you decide how hot, cold, wet, or windy it might be!

Date:

Astronomy

May. 29, 2014 Rise Set
Actual Time 5:14 AM EDT 8:25 PM EDT
Civil Twilight 4:39 AM EDT 9:00 PM EDT
Nautical Twilight 3:54 AM EDT 9:46 PM EDT
Astronomical Twilight 2:59 AM EDT 10:41 PM EDT
Moon 6:07 AM EDT (5/29) 9:11 PM EDT (5/29)
Length of Visible Light 16h 21m
Length of Day
15h 11m
New Moon, 1% of the Moon is Illuminated
May 29
New Moon
Jun 5
First Quarter
Jun 13
Full
Jun 19
Last Quarter
Jun 27
New

Hourly Weather History & Observations

Time (EDT) Temp. Dew Point Humidity Pressure Visibility Wind Dir Wind Speed Gust Speed Precip Events Conditions
12:15 AM 48.0 °F 48.0 °F 100% 30.21 in 4.0 mi Calm Calm - N/A   Scattered Clouds
12:35 AM 47.5 °F 47.5 °F 100% 30.21 in 10.0 mi Calm Calm - N/A   Clear
12:55 AM 46.4 °F 46.4 °F 100% 30.21 in 10.0 mi Calm Calm - N/A   Clear
1:15 AM 46.4 °F 46.4 °F 100% 30.21 in 10.0 mi Calm Calm - N/A   Clear
1:35 AM 45.5 °F 45.5 °F 100% 30.21 in 10.0 mi Calm Calm - N/A   Clear
1:55 AM 45.7 °F 45.7 °F 100% 30.20 in 10.0 mi Calm Calm - N/A   Clear
2:15 AM 45.3 °F 45.3 °F 100% 30.20 in 10.0 mi Calm Calm - N/A   Clear
2:35 AM 44.2 °F 44.2 °F 100% 30.20 in 10.0 mi Calm Calm - N/A   Clear
2:55 AM 44.2 °F 44.2 °F 100% 30.20 in 10.0 mi Calm Calm - N/A   Clear
3:15 AM 44.2 °F 44.2 °F 100% 30.20 in 10.0 mi Calm Calm - N/A   Clear
3:35 AM 43.3 °F 43.3 °F 100% 30.20 in 10.0 mi Calm Calm - N/A   Clear
3:55 AM 43.5 °F 43.5 °F 100% 30.20 in 10.0 mi Calm Calm - N/A   Clear
4:15 AM 42.1 °F 42.1 °F 100% 30.20 in 10.0 mi Calm Calm - N/A   Clear
4:35 AM 42.3 °F 42.3 °F 100% 30.21 in 2.0 mi Calm Calm - N/A   Clear
5:15 AM 42.6 °F 42.6 °F 100% 30.22 in 10.0 mi Calm Calm - N/A   Clear
5:35 AM 41.7 °F 41.7 °F 100% 30.22 in 10.0 mi Calm Calm - N/A   Clear
5:55 AM 41.7 °F 41.7 °F 100% 30.22 in 7.0 mi Calm Calm - N/A   Clear
6:15 AM 41.9 °F 41.9 °F 100% 30.23 in 10.0 mi Calm Calm - N/A   Clear
6:35 AM 43.9 °F 43.9 °F 100% 30.23 in 10.0 mi Calm Calm - N/A   Clear
6:55 AM 45.7 °F 45.7 °F 100% 30.24 in 10.0 mi Calm Calm - N/A   Clear
7:15 AM 47.8 °F 47.8 °F 100% 30.23 in 10.0 mi Calm Calm - N/A   Clear
7:35 AM 50.2 °F 49.6 °F 98% 30.24 in 10.0 mi Calm Calm - N/A   Clear
7:55 AM 52.9 °F 48.6 °F 85% 30.24 in 10.0 mi Calm Calm - N/A   Clear
8:15 AM 54.3 °F 47.1 °F 77% 30.24 in 10.0 mi Calm Calm - N/A   Clear
8:35 AM 54.9 °F 44.8 °F 69% 30.24 in 10.0 mi Calm Calm - N/A   Clear
8:55 AM 56.1 °F 46.8 °F 71% 30.23 in 10.0 mi SSE 3.5 mph - N/A   Clear
9:15 AM 57.2 °F 43.5 °F 60% 30.23 in 10.0 mi SSE 5.8 mph - N/A   Clear
9:35 AM 58.3 °F 40.6 °F 52% 30.22 in 10.0 mi SSE 5.8 mph - N/A   Clear
9:55 AM 58.8 °F 41.0 °F 52% 30.22 in 10.0 mi SSE 3.5 mph - N/A   Clear
10:15 AM 59.7 °F 39.7 °F 48% 30.21 in 10.0 mi South 3.5 mph - N/A   Clear
10:55 AM 61.7 °F 39.2 °F 43% 30.21 in 10.0 mi Calm Calm - N/A   Clear
11:15 AM 62.8 °F 40.8 °F 45% 30.20 in 10.0 mi SW 5.8 mph - N/A   Clear
11:35 AM 62.6 °F 39.6 °F 43% 30.20 in 10.0 mi South 3.5 mph - N/A   Clear
11:55 AM 63.1 °F 39.4 °F 42% 30.20 in 10.0 mi SSE 5.8 mph - N/A   Clear
12:15 PM 63.7 °F 39.2 °F 41% 30.20 in 10.0 mi Calm Calm - N/A   Clear
12:35 PM 64.9 °F 40.1 °F 40% 30.19 in 10.0 mi SSE 3.5 mph - N/A   Clear
12:55 PM 64.9 °F 40.8 °F 41% 30.19 in 10.0 mi West 5.8 mph - N/A   Clear
1:15 PM 65.3 °F 40.8 °F 41% 30.18 in 10.0 mi South 3.5 mph - N/A   Clear
1:35 PM 65.5 °F 40.8 °F 41% 30.17 in 10.0 mi NW 3.5 mph - N/A   Clear
2:15 PM 67.6 °F 39.7 °F 36% 30.16 in 10.0 mi South 5.8 mph - N/A   Clear
2:35 PM 67.3 °F 38.3 °F 35% 30.16 in 10.0 mi SSW 5.8 mph - N/A   Clear
2:55 PM 67.5 °F 39.2 °F 36% 30.15 in 10.0 mi Calm Calm - N/A   Clear
3:15 PM 68.2 °F 37.2 °F 32% 30.14 in 10.0 mi Calm Calm - N/A   Clear
3:55 PM 68.9 °F 37.6 °F 32% 30.12 in 10.0 mi WSW 3.5 mph - N/A   Clear
4:15 PM 69.3 °F 38.1 °F 32% 30.11 in 10.0 mi SSW 5.8 mph - N/A   Clear
4:35 PM 69.6 °F 37.9 °F 31% 30.10 in 10.0 mi SSE 5.8 mph - N/A   Clear
4:55 PM 69.6 °F 39.2 °F 33% 30.09 in 10.0 mi South 6.9 mph - N/A   Clear
5:15 PM 68.9 °F 38.8 °F 33% 30.09 in 10.0 mi Calm Calm - N/A   Clear
5:35 PM 69.6 °F 39.7 °F 34% 30.09 in 10.0 mi SSE 4.6 mph - N/A   Clear
5:55 PM 68.4 °F 41.0 °F 37% 30.09 in 10.0 mi WSW 4.6 mph - N/A   Clear
6:15 PM 68.5 °F 41.5 °F 37% 30.10 in 10.0 mi Calm Calm - N/A   Clear
6:35 PM 68.5 °F 39.6 °F 35% 30.09 in 10.0 mi WSW 4.6 mph - N/A   Clear
6:55 PM 67.5 °F 40.8 °F 38% 30.09 in 10.0 mi Calm Calm - N/A   Clear
7:15 PM 64.0 °F 47.7 °F 55% 30.09 in 10.0 mi Calm Calm - N/A   Clear
7:35 PM 62.2 °F 47.8 °F 59% 30.08 in 10.0 mi Calm Calm - N/A   Clear
7:55 PM 60.6 °F 49.1 °F 66% 30.08 in 10.0 mi Calm Calm - N/A   Clear
8:15 PM 58.8 °F 48.6 °F 69% 30.09 in 10.0 mi Calm Calm - N/A   Clear
8:35 PM 57.9 °F 48.7 °F 71% 30.09 in 10.0 mi ENE 3.5 mph - N/A   Scattered Clouds
8:55 PM 57.2 °F 49.1 °F 74% 30.09 in 10.0 mi Calm Calm - N/A   Mostly Cloudy
9:15 PM 56.8 °F 48.2 °F 73% 30.09 in 10.0 mi ENE 3.5 mph - N/A   Mostly Cloudy
9:55 PM 57.7 °F 49.3 °F 73% 30.10 in 10.0 mi ENE 3.5 mph - N/A   Overcast
10:15 PM 60.8 °F 46.6 °F 59% 30.09 in 10.0 mi ENE 4.6 mph - N/A   Overcast
10:35 PM 61.2 °F 46.2 °F 58% 30.09 in 10.0 mi ESE 3.5 mph - N/A   Overcast
10:55 PM 61.0 °F 46.6 °F 59% 30.09 in 10.0 mi East 3.5 mph - N/A   Overcast
11:15 PM 59.0 °F 48.9 °F 69% 30.09 in 10.0 mi Calm Calm - N/A   Overcast
11:35 PM 58.8 °F 48.6 °F 69% 30.08 in 10.0 mi East 3.5 mph - N/A   Overcast